Location: Sungai Bunut
(2.6333°N, 113.7333°E)
Time: 03:09:41
(UTC+00:00)

S-56A Canister/Altair - Pass Details

Date: 10 December 2023
Orbit: 640 x 2488 km, 38.9° (Epoch: 24 February)

Event Time Altitude Azimuth Distance (km) Brightness Sun altitude
Rises 09:11:39 0° 330° (NNW) 3,291 10.9 14.1°
Reaches altitude 10° 09:14:01 10° 340° (NNW) 2,524 10.2 13.6°
Maximum altitude 09:19:29 36° 45° (NE) 1,687 8.9 12.3°
Drops below altitude 10° 09:27:17 10° 108° (ESE) 3,625 10.6 10.5°
Sets 09:31:20 0° 116° (ESE) 4,939 11.3 9.6°
